Regional Weather Roundup
Issued by NWS Cleveland, OH

Home | Current Version | Previous Version | Text Only | Print | Product List | Glossary Off
Versions: 1 2 3 4 5 6 7 8 9 10 11 12 13 14 15 16 17 18 19 20 21 22 23 24 25 26 27 28 29 30 31 32 33 34 35 36 37 38 39 40 41 42 43 44 45 46 47 48 49 50

901
ASUS41 KCLE 231500
RWRCLE
OHIO REGIONAL WEATHER ROUNDUP
NATIONAL WEATHER SERVICE WILMINGTON, OH
1100 AM EDT MON APR 23 2018

NOTE: "FAIR" INDICATES FEW OR NO CLOUDS BELOW 12,000 FEET WITH NO
SIGNIFICANT WEATHER AND/OR OBSTRUCTIONS TO VISIBILITY.

OHZ001>008-015>018-024>027-034-035-043-044-231600-
   NORTHWEST OHIO

CITY           SKY/WX    TMP DP  RH WIND       PRES   REMARKS
DEFIANCE       FAIR      61  42  49 E12       30.19F
FINDLAY        FAIR      65  42  43 SE16      30.17F
TOLEDO EXPRESS FAIR      62  42  47 E8        30.20F
TOLEDO EXEC    FAIR      62  42  47 E8        30.22F
LIMA           FAIR      65  44  46 SE15      30.17S
$$

OHZ009>014-019>023-028>033-038-089-231600-
   NORTHEAST OHIO

CITY           SKY/WX    TMP DP  RH WIND       PRES   REMARKS
CLE-HOPKINS    PTSUNNY   68  42  38 SE9       30.26F
CLE-LAKEFRONT  FAIR      66  39  37 SE10      30.23F
CUY CO. ARPT   MOSUNNY   66  43  42 SE12G21   30.26F
LORAIN-ELYRIA  FAIR      65  39  38 SE7       30.23F
ASHTABULA      FAIR      62  38  40 SE13      30.29F
AKRON-CANTON   PTSUNNY   65  42  43 SE14      30.25F
WOOSTER        NOT AVBL
MANSFIELD      FAIR      64  42  44 SE14      30.22F
YOUNGSTOWN     PTSUNNY   64  40  41 SE8       30.28F
$$

OHZ042-051>053-060>062-070>072-077>081-231600-
  SOUTHWEST OHIO

CITY           SKY/WX    TMP DP  RH WIND       PRES   REMARKS
CINC-COVINGTON RAIN      54  49  83 E9        30.12R
CINC-LUNKEN    LGT RAIN  59  48  67 SE5       30.14R
HAMILTON       CLOUDY    61  46  57 VRB7      30.13S
DAYTON         NOT AVBL
WRIGHT-PAT AFB PTSUNNY   64  45  49 SE14G20   30.14S
DAYTON GENERAL FAIR      63  44  50 E13       30.13R
WILMINGTON     FAIR      64  48  56 SE12G20   30.13F
$$

OHZ036-037-039>041-045>050-054>059-063>069-073>076-082>088-231600-
  CENTRAL AND SOUTHEAST OHIO

CITY           SKY/WX    TMP DP  RH WIND       PRES   REMARKS
COLUMBUS       PTSUNNY   66  42  41 SE17      30.17F
OSU AIRPORT    FAIR      64  43  46 SE17      30.17S
BOLTON FIELD   NOT AVBL
RICKENBACK AFB NOT AVBL
NEWARK         FAIR      64  44  48 SE14      30.18F
MARION         FAIR      66  42  41 SE18G26   30.19F
LANCASTER      FAIR      64  45  49 SE16      30.18F
ZANESVILLE     FAIR      65  42  43 SE13      30.21F
NEW PHILLY     FAIR      66  42  41 SE14      30.24F
$$




USA.gov is the U.S. government's official web portal to all federal, state and local government web resources and services.